Location: Unspecified
(51.0950°N, 12.9690°E)
Time: 21:55:06
(UTC+00:00)

Cosmos 2228 - Pass Details

Date: 28 October 2021
Orbit: 587 x 619 km, 82.5° (Epoch: 01 December)

Event Time Altitude Azimuth Distance (km) Brightness Sun altitude
Rises 17:30:34 0° 179° (S) 2,881 6.5 -16.4°
Reaches altitude 10° 17:32:47 10° 176° (S) 1,981 5.6 -16.8°
Maximum altitude 17:37:07 62° 96° (E) 702 3.0 -17.4°
Drops below altitude 10° 17:41:29 10° 16° (NNE) 1,995 5.5 -18.1°
Sets 17:43:44 0° 13° (NNE) 2,903 6.4 -18.5°
